Wind_Speed
12 10 7 18 21 20 20 27 24 25 23 17 14 24 24 17 13 15 14 13 9 11 13 17 21 22 20 19 15 13 13 13 14 15 16 16 15 14 12 10 7 5 3 1
14 4 10 17 21 24 25 24 29 29 26 20 18 25 23 17 14 14 15 14 12 13 16 18 18 19 19 19 17 14 13 14 14 14 14 14 15 14 12 10 7 5 3 3
18 17 18 19 21 26 26 22 29 31 33 27 22 31 27 18 18 19 17 19 19 16 16 19 21 20 21 19 17 15 14 14 14 14 13 13 13 14 12 9 7 4 3 4
23 22 21 18 15 22 27 25 31 31 37 35 26 27 33 28 22 18 19 19 20 18 17 17 20 21 21 21 20 17 14 12 12 13 12 11 11 10 9 8 6 4 4 6
21 21 20 19 12 17 18 29 28 32 34 38 37 31 31 34 28 22 20 20 21 21 20 18 19 18 19 18 18 20 19 16 15 15 16 13 11 9 8 8 8 7 6 9
34 31 31 23 25 22 25 33 33 34 38 47 34 33 32 34 23 23 24 24 25 24 22 21 21 20 19 18 16 15 16 18 16 16 16 15 15 13 12 11 11 11 10 11
37 36 31 30 28 29 29 36 41 41 44 34 32 39 20 30 28 24 20 21 26 26 26 23 19 14 14 15 16 17 17 16 17 17 16 17 17 15 15 15 14 14 13 12
40 41 32 29 28 27 26 33 35 32 29 35 38 29 15 26 31 31 25 24 28 27 24 24 22 19 15 13 14 14 13 14 15 17 19 20 19 19 18 17 17 17 16 14
48 48 41 36 32 32 33 34 24 35 36 34 28 17 18 22 26 27 28 30 28 28 28 25 24 22 20 18 16 15 16 18 17 20 23 24 24 21 19 21 21 20 19 17
49 52 48 42 42 42 39 33 36 37 37 33 24 18 9 14 22 28 29 29 26 23 23 24 23 23 23 21 18 19 17 16 14 14 19 21 22 23 22 22 21 22 23 20
52 53 51 50 51 47 44 44 41 39 38 33 25 16 10 11 19 30 32 28 26 26 26 27 25 25 22 18 17 17 19 19 16 14 17 17 17 18 21 24 25 26 27 25
57 56 52 52 51 46 45 44 44 45 36 31 29 24 16 14 20 30 32 33 29 30 29 28 27 26 27 22 19 17 21 19 17 17 19 18 18 15 14 17 20 25 27 27
62 62 57 55 56 54 54 53 49 44 44 44 37 25 18 13 19 26 35 37 32 36 36 33 31 28 29 25 23 21 18 23 21 20 19 18 16 14 14 15 15 16 19 22
67 65 61 59 59 58 57 56 51 49 50 42 38 32 22 19 16 22 30 34 36 37 38 38 37 34 30 28 28 27 25 28 26 24 22 21 18 16 18 18 15 15 16 19
71 70 67 65 64 63 62 60 59 57 51 50 36 35 29 25 22 25 30 37 41 44 43 43 40 38 34 32 31 28 25 24 25 22 24 22 21 19 19 13 13 14 12 15
77 76 74 72 70 68 66 64 63 61 56 54 46 41 32 28 27 29 31 36 42 45 47 46 43 41 39 36 34 29 28 23 25 27 20 21 21 21 19 16 12 11 10 11
81 79 78 75 74 71 70 66 64 63 60 56 52 44 38 31 30 27 30 31 33 38 46 48 49 47 44 41 40 35 28 26 27 30 27 23 24 24 22 19 17 14 16 19
84 83 81 79 78 78 70 69 69 67 63 61 55 48 43 38 34 34 34 34 34 33 34 36 43 43 40 39 40 36 34 30 30 30 34 28 22 24 23 27 25 20 21 21
86 86 85 84 82 80 79 74 71 71 67 63 58 53 48 43 40 38 41 39 40 38 35 33 34 36 39 38 36 32 35 31 30 26 22 21 23 25 28 28 31 28 27 27
87 89 90 88 86 86 80 76 75 73 70 65 62 59 53 48 46 40 38 42 41 42 40 37 35 33 35 35 32 33 32 29 26 25 23 27 37 41 39 33 34 35 39 38
83 91 92 91 91 89 86 81 79 76 71 67 65 63 59 55 48 43 38 42 42 47 46 42 39 35 34 35 33 31 33 33 28 33 30 31 34 36 41 45 47 51 46 42
65 81 95 96 97 95 88 84 82 79 72 69 67 61 62 58 51 48 45 40 44 45 45 45 39 37 33 33 37 36 33 38 42 42 42 35 34 33 36 42 51 57 58 49
49 63 78 93 102 96 94 90 84 84 80 75 70 61 62 58 51 49 43 46 42 43 42 41 40 37 33 32 36 38 39 40 43 43 39 33 36 37 38 48 54 62 54 46
36 44 65 79 93 97 99 96 93 90 84 80 76 72 66 58 51 52 45 40 42 41 37 41 42 41 37 33 35 37 41 42 42 42 40 38 41 41 44 45 54 54 50 47
19 27 40 59 74 82 94 96 98 92 89 84 79 76 68 65 59 51 46 44 43 42 39 35 36 38 37 38 38 42 43 45 46 48 46 46 47 50 54 54 52 55 56 58
20 22 27 28 46 72 78 88 97 95 91 81 80 81 68 53 48 56 57 47 43 40 44 42 37 39 37 35 41 39 41 48 53 53 53 54 56 57 58 58 54 54 53 55
Wind_Direction
233 230 233 236 232 223 222 212 206 208 213 196 180 202 205 196 179 176 143 137 143 160 172 180 175 172 170 170 174 180 181 175 177 174 172 176 172 165 158 160 159 170 195 143
233 171 204 209 217 220 219 212 211 219 227 226 196 192 208 194 181 171 161 154 155 167 170 173 181 168 170 174 182 182 179 181 188 186 176 177 175 173 176 182 181 191 250 320
234 217 219 211 210 208 211 205 210 218 228 239 218 196 203 202 200 195 191 168 165 167 175 171 170 174 176 178 180 185 185 187 189 191 194 194 191 195 189 182 177 201 257 307
229 230 233 229 213 211 208 205 209 214 226 237 240 210 208 205 208 209 210 186 167 166 178 175 181 181 175 184 189 189 187 195 198 202 206 211 209 207 195 185 196 227 272 296
236 237 234 237 232 221 200 211 210 215 224 231 237 237 206 209 211 210 218 202 180 173 176 182 175 179 186 191 193 189 185 193 197 203 215 218 220 220 215 216 220 228 253 275
225 221 226 222 216 208 203 210 216 215 221 232 225 241 204 209 201 205 215 209 195 182 180 182 189 190 184 181 190 197 191 193 201 209 213 217 224 229 226 232 235 241 252 271
228 228 225 223 226 222 211 208 214 217 225 250 232 240 190 202 202 197 212 218 209 188 187 186 185 192 207 196 204 208 207 203 202 210 219 227 231 235 235 237 236 238 247 261
232 234 231 231 233 237 235 229 230 232 247 245 240 244 202 191 201 202 211 201 192 186 189 188 184 181 191 204 203 206 214 216 219 224 223 227 232 235 236 240 239 238 246 258
229 232 230 228 233 234 231 233 239 238 242 248 256 250 244 212 199 203 204 193 197 191 194 194 190 178 178 187 192 197 214 224 229 236 239 236 235 238 237 238 238 238 244 252
227 231 230 228 228 226 222 228 231 235 238 243 249 254 218 195 197 198 194 201 205 210 201 196 195 191 195 195 202 213 214 208 219 243 248 239 234 234 238 241 240 242 250 257
229 226 228 227 230 228 223 226 230 233 235 243 248 236 231 202 196 197 209 206 217 227 221 211 206 200 201 209 216 217 213 216 230 232 228 232 232 232 237 242 243 247 253 256
228 228 225 227 229 229 227 226 232 238 241 251 256 250 241 197 193 194 197 211 216 213 201 201 206 208 212 215 217 231 225 228 234 228 229 228 232 233 234 244 250 251 252 252
227 228 224 225 226 227 227 228 228 229 229 230 232 226 232 214 192 202 206 204 211 206 203 206 207 213 223 231 239 238 237 221 238 245 240 231 236 235 241 247 256 267 269 263
226 228 226 224 225 225 229 232 232 232 235 235 233 233 217 224 195 197 206 210 209 205 209 211 212 216 224 234 238 235 251 230 229 241 257 245 238 243 248 249 255 262 271 269
223 224 226 226 225 227 229 232 236 239 241 240 236 238 232 220 217 204 198 207 211 213 214 216 218 218 224 234 241 244 255 261 251 244 253 257 239 242 249 257 263 274 290 280
225 225 226 227 228 228 229 231 235 238 239 241 240 240 240 227 217 209 208 212 217 219 218 219 219 223 226 230 239 243 249 254 264 265 270 257 247 242 240 242 257 276 291 289
224 225 227 227 229 228 228 230 235 239 241 242 240 242 241 235 227 216 222 218 216 221 226 228 227 232 229 229 237 240 247 261 255 261 258 255 239 235 239 240 248 263 280 281
222 226 227 228 228 229 227 227 231 234 236 239 238 238 238 233 230 226 220 230 230 225 226 231 237 240 239 233 230 233 242 250 261 253 245 247 239 242 246 251 252 257 269 275
220 223 226 227 229 231 228 228 229 232 234 238 239 239 236 233 229 227 228 229 231 237 234 231 235 238 238 243 244 241 241 251 256 257 248 247 251 248 255 260 255 255 256 272
217 222 225 226 228 231 230 231 231 233 232 235 238 240 239 235 229 225 229 230 234 235 237 237 238 240 239 243 245 247 248 251 246 258 271 247 244 248 255 258 264 263 261 271
222 220 224 227 228 229 230 230 233 232 231 233 237 240 241 241 236 238 233 233 234 240 241 237 241 242 244 247 247 245 250 255 250 256 247 254 252 248 247 250 252 249 254 245
231 227 224 226 228 230 229 231 232 236 234 235 236 239 242 243 241 237 238 236 240 238 243 246 242 244 243 246 248 250 252 256 257 261 266 264 251 246 251 256 256 257 249 258
241 237 235 229 228 229 231 231 232 234 235 237 237 237 240 245 246 242 240 242 241 239 241 247 246 245 245 245 241 243 247 252 257 261 265 258 249 244 248 256 257 264 275 275
243 243 242 236 232 231 231 232 232 232 233 235 238 239 237 238 242 246 245 242 243 249 246 244 247 245 242 245 248 246 245 247 254 257 259 256 245 249 251 265 264 269 284 284
243 243 246 244 239 237 234 236 236 233 234 236 239 241 240 242 242 242 243 248 246 246 251 251 248 248 241 242 249 248 249 248 251 254 260 256 255 258 262 268 269 272 276 280
259 258 254 239 230 238 236 235 234 235 234 235 239 241 241 244 248 246 242 245 247 246 249 251 244 243 247 241 246 249 248 248 248 249 252 257 260 260 263 266 269 270 274 272
Height
5844 5846 5849 5854 5857 5860 5862 5867 5870 5874 5876 5880 5882 5883 5884 5884 5885 5885 5883 5884 5886 5889 5891 5893 5896 5898 5902 5906 5911 5914 5916 5918 5920 5921 5923 5924 5925 5926 5928 5929 5930 5931 5933 5933
5841 5845 5844 5846 5850 5855 5858 5861 5867 5869 5871 5875 5878 5881 5882 5883 5883 5884 5881 5881 5883 5887 5889 5891 5896 5898 5902 5906 5910 5913 5915 5917 5920 5921 5923 5924 5925 5926 5927 5928 5929 5930 5931 5932
5836 5838 5838 5840 5843 5847 5852 5858 5862 5866 5865 5869 5873 5875 5878 5880 5880 5881 5882 5879 5879 5885 5889 5891 5894 5897 5900 5904 5909 5912 5914 5915 5918 5920 5922 5924 5924 5925 5926 5927 5928 5929 5930 5930
5827 5831 5833 5836 5840 5842 5847 5853 5854 5858 5859 5861 5865 5870 5872 5874 5877 5879 5881 5881 5879 5883 5888 5891 5894 5897 5898 5902 5905 5908 5912 5914 5917 5919 5921 5922 5923 5924 5925 5925 5926 5927 5928 5929
5826 5826 5829 5831 5837 5838 5845 5845 5850 5852 5853 5855 5857 5860 5868 5869 5872 5878 5879 5881 5879 5880 5884 5889 5891 5895 5898 5900 5904 5905 5907 5911 5914 5917 5918 5919 5920 5921 5923 5923 5923 5924 5926 5928
5813 5816 5817 5826 5827 5831 5835 5837 5841 5844 5847 5839 5853 5853 5860 5864 5872 5874 5876 5878 5878 5878 5882 5886 5889 5892 5895 5897 5901 5905 5907 5907 5911 5913 5914 5916 5917 5918 5919 5920 5922 5923 5924 5925
5804 5808 5814 5816 5820 5822 5826 5828 5829 5834 5833 5835 5848 5844 5856 5860 5866 5870 5872 5875 5878 5877 5879 5882 5886 5891 5894 5896 5899 5902 5905 5907 5908 5910 5912 5912 5914 5916 5918 5919 5920 5921 5922 5923
5796 5798 5806 5812 5815 5819 5822 5822 5823 5827 5830 5834 5836 5837 5850 5856 5859 5864 5867 5870 5873 5873 5876 5879 5883 5886 5891 5895 5897 5900 5903 5904 5906 5907 5908 5909 5910 5912 5914 5915 5917 5918 5919 5920
5784 5787 5795 5802 5808 5810 5812 5814 5827 5824 5825 5828 5830 5836 5842 5851 5855 5858 5862 5866 5870 5872 5875 5878 5880 5883 5887 5890 5894 5896 5899 5900 5901 5902 5903 5905 5907 5909 5911 5912 5913 5914 5914 5915
5772 5776 5785 5792 5794 5796 5803 5810 5811 5812 5816 5820 5826 5830 5838 5846 5852 5856 5858 5862 5868 5872 5874 5878 5879 5881 5883 5886 5889 5891 5893 5895 5896 5896 5898 5900 5902 5904 5906 5907 5910 5911 5910 5910
5757 5765 5773 5779 5780 5787 5794 5796 5801 5807 5810 5815 5821 5827 5833 5840 5846 5851 5856 5861 5865 5869 5872 5876 5878 5880 5882 5883 5884 5887 5889 5891 5893 5893 5894 5896 5898 5899 5901 5903 5904 5906 5906 5906
5742 5750 5760 5768 5773 5781 5787 5789 5793 5797 5808 5813 5817 5821 5828 5833 5839 5843 5850 5856 5860 5864 5868 5871 5873 5875 5877 5879 5881 5883 5885 5887 5889 5890 5890 5893 5893 5895 5896 5899 5900 5900 5901 5901
5726 5734 5746 5755 5762 5767 5771 5776 5782 5792 5795 5798 5807 5815 5822 5827 5832 5837 5841 5846 5852 5858 5861 5865 5868 5871 5875 5878 5880 5881 5881 5884 5885 5886 5887 5889 5891 5892 5893 5894 5896 5896 5895 5896
5710 5718 5731 5743 5751 5755 5760 5765 5774 5781 5782 5795 5801 5809 5818 5824 5828 5831 5835 5841 5844 5849 5855 5859 5861 5866 5869 5872 5875 5878 5879 5880 5881 5883 5885 5886 5887 5889 5889 5888 5889 5891 5890 5890
5693 5703 5715 5726 5734 5743 5749 5755 5761 5768 5778 5781 5801 5803 5812 5817 5821 5825 5827 5832 5837 5842 5847 5853 5857 5860 5863 5866 5869 5872 5875 5875 5877 5880 5881 5883 5884 5885 5886 5887 5886 5886 5887 5886
5675 5686 5698 5709 5719 5729 5738 5745 5750 5756 5767 5773 5787 5795 5805 5812 5814 5818 5822 5825 5829 5833 5839 5845 5849 5853 5857 5860 5864 5867 5869 5871 5871 5873 5877 5879 5880 5882 5883 5883 5883 5883 5882 5882
5657 5668 5680 5693 5702 5713 5723 5738 5743 5748 5755 5765 5774 5787 5798 5805 5809 5814 5815 5818 5822 5826 5830 5835 5839 5843 5848 5852 5857 5860 5864 5865 5866 5867 5870 5873 5875 5877 5878 5879 5878 5879 5879 5878
5641 5651 5662 5673 5684 5692 5717 5722 5728 5734 5743 5751 5763 5775 5783 5794 5801 5805 5809 5811 5813 5817 5822 5827 5831 5834 5839 5844 5848 5854 5855 5859 5862 5862 5863 5866 5868 5872 5871 5872 5873 5874 5874 5874
5625 5633 5644 5654 5667 5682 5691 5707 5716 5722 5735 5742 5751 5762 5772 5781 5787 5795 5799 5804 5807 5809 5813 5818 5822 5826 5831 5834 5840 5844 5848 5852 5854 5856 5859 5859 5861 5862 5864 5866 5868 5868 5867 5868
5609 5617 5626 5639 5652 5659 5680 5691 5702 5711 5721 5733 5741 5749 5760 5769 5776 5786 5790 5794 5799 5802 5805 5808 5815 5819 5823 5828 5832 5835 5840 5843 5847 5851 5854 5853 5854 5855 5856 5860 5861 5861 5861 5861
5592 5602 5611 5621 5632 5644 5660 5675 5685 5697 5715 5720 5727 5735 5746 5756 5767 5774 5783 5785 5789 5792 5798 5800 5803 5809 5814 5818 5822 5827 5830 5834 5841 5842 5843 5844 5845 5845 5846 5845 5845 5842 5843 5840
5578 5587 5596 5605 5613 5626 5647 5660 5674 5683 5696 5706 5716 5724 5731 5741 5752 5761 5769 5775 5780 5782 5787 5792 5795 5800 5804 5809 5812 5817 5822 5826 5827 5830 5832 5833 5835 5836 5836 5836 5835 5830 5826 5827
5569 5573 5580 5590 5602 5619 5628 5643 5659 5665 5679 5689 5700 5712 5722 5729 5738 5748 5758 5763 5768 5775 5779 5783 5787 5791 5795 5798 5803 5806 5810 5814 5817 5819 5820 5822 5824 5824 5825 5825 5824 5824 5815 5815
5551 5557 5564 5573 5588 5602 5615 5623 5636 5648 5660 5674 5684 5697 5709 5718 5728 5736 5744 5753 5759 5763 5769 5774 5777 5781 5785 5788 5792 5796 5800 5803 5805 5807 5809 5811 5814 5815 5816 5815 5815 5814 5812 5813
5544 5545 5550 5558 5574 5584 5597 5607 5620 5631 5647 5663 5674 5683 5697 5707 5718 5727 5733 5741 5748 5754 5759 5763 5767 5770 5775 5779 5782 5785 5788 5792 5794 5797 5799 5801 5803 5804 5804 5803 5803 5802 5802 5802
5538 5538 5537 5551 5556 5555 5577 5587 5603 5616 5635 5652 5661 5674 5688 5697 5705 5714 5724 5732 5738 5743 5748 5754 5757 5760 5765 5769 5773 5775 5778 5781 5784 5786 5788 5790 5791 5792 5792 5793 5791 5790 5789 5789